Location: Central Falls
(41.8900°N, 71.3929°W)
Time: 01:39:23
(UTC+00:00)

Vanguard 3 - Pass Details

Date: 10 December 2023
Orbit: 508 x 3239 km, 33.4° (Epoch: 03 March)

Event Time Altitude Azimuth Distance (km) Brightness Sun altitude
Rises 00:23:24 0° 230° (SW) 7,110 12.6 -34.3°
Reaches altitude 10° 00:28:50 10° 225° (SW) 5,906 12.0 -35.3°
Maximum altitude 00:44:25 43° 162° (SSE) 2,978 9.7 -38.2°
Enters shadow 00:44:41 42° 160° (SSE) 2,959 9.7 -38.3°
Drops below altitude 10° 00:54:21 10° 96° (E) 3,849 - -40.1°
Sets 00:57:05 0° 89° (E) 4,515 - -40.6°
